Starlink 4473

operational
NORAD ID: 53660 Int'l Des: 2022-105 Owner: SPXS Country: US Constellation: starlink
LEOCIRCULARRETROGRADESSO

关于 Starlink 4473

正在加载描述...

实时位置

正在加载3D地球...

即将过境

高度历史

Altitude vs Time

uPlot chart will show altitude changes over time

两行轨道根数

1 53660U 22105N 26035.62982860 .00001316 00000-0 10698-3 0 9995
2 53660 97.6029 277.8368 0000560 221.8896 138.2286 15.01258727188277
Epoch: Feb 4, 2026 • Age: 29 hours

当前状态

高度 565.7 km
速度 7.58 km/s
星下点 14.63°N, 158.57°W
发射日期 Aug 31, 2022
运行时间 3.4 years
类型 internet

技术详情

分类 Payload
质量 300.00 kg
干质量 290.00 kg
总质量 300.00 kg
长度 0.20 m
直径 2.80 m
跨度 9.00 m
形状 Box + pan
制造商 SPXS
平台类型 Starlink
阶段状态 In Orbit
所有者/国家 SPXS/US

大型星座

Loading constellations...